Mount Airy, NC

5:55 PM EST on February 22, 2017 (GMT -0500)
Mount Airy-Surry County

Weather History for KMWK - January, 2013

Change the Weather History Date:

Tuesday, January 22, 2013

  Actual Average (KINT) Record (KINT)
Temperature  
Mean Temperature 28 °F -  
Max Temperature 36 °F 45 °F 69 °F (1999)
Min Temperature 18 °F 28 °F -4 °F (1970)
Degree Days  
Heating Degree Days 38    
Moisture  
Dew Point -8 °F    
Average Humidity 22    
Maximum Humidity 36    
Minimum Humidity 9    
Precipitation  
Precipitation 0.00 in - - ()
Sea Level Pressure  
Sea Level Pressure 30.13 in    
Wind  
Wind Speed 7 mph (WNW)    
Max Wind Speed 13 mph    
Max Gust Speed 22 mph    
Visibility 10 miles    
Events      
Averages and records for this station are not official NWS values.
T = Trace of Precipitation, MM = Missing Value Source: NWS Daily Summary

Daily Weather History Graph

Daily Weather History Graph

Search for Another Location

Airport or City:

Trip Planner

Search our weather history database for the weather conditions in past years. The results will help you decide how hot, cold, wet, or windy it might be!

Date:

Astronomy

Jan. 22, 2013 Rise Set
Actual Time 7:30 AM EST 5:37 PM EST
Civil Twilight 7:02 AM EST 6:05 PM EST
Nautical Twilight 6:31 AM EST 6:36 PM EST
Astronomical Twilight 6:00 AM EST 7:07 PM EST
Moon 2:00 PM EST 3:49 AM EST
Length of Visible Light 11h 03m
Length of Day
10h 07m
Waxing Gibbous, 82% of the Moon is Illuminated
Jan 22
Waxing Gibbous
Jan 26
Full
Feb 3
Last Quarter
Feb 10
New
Feb 17
First Quarter

Hourly Weather History & Observations

Time (EST) Temp. Windchill Dew Point Humidity Pressure Visibility Wind Dir Wind Speed Gust Speed Precip Events Conditions
12:35 AM 32.4 °F 26.0 °F 2.7 °F 28% 29.97 in 10.0 mi WNW 6.9 mph - N/A   Clear
12:55 AM 32.2 °F 27.7 °F 3.9 °F 30% 29.97 in 10.0 mi NW 4.6 mph - N/A   Clear
1:15 AM 31.5 °F 26.8 °F 4.3 °F 32% 29.98 in 10.0 mi WNW 4.6 mph - N/A   Clear
1:35 AM 31.1 °F 24.5 °F 5.2 °F 33% 29.99 in 10.0 mi NW 6.9 mph - N/A   Clear
2:15 AM 30.2 °F 24.3 °F 5.9 °F 36% 30.00 in 10.0 mi NW 5.8 mph - N/A   Clear
2:55 AM 29.8 °F 21.5 °F 5.2 °F 35% 30.01 in 10.0 mi NW 9.2 mph - N/A   Clear
3:15 AM 29.1 °F 22.1 °F 4.6 °F 35% 30.02 in 10.0 mi NW 6.9 mph - N/A   Clear
3:35 AM 28.8 °F 20.9 °F 3.9 °F 35% 30.03 in 10.0 mi NW 8.1 mph - N/A   Clear
3:55 AM 28.8 °F 18.4 °F 2.1 °F 32% 30.03 in 10.0 mi NW 12.7 mph 18.4 mph N/A   Clear
4:15 AM 27.9 °F 18.4 °F 1.4 °F 32% 30.03 in 10.0 mi NW 10.4 mph 17.3 mph N/A   Clear
4:35 AM 27.5 °F 17.4 °F -0.0 °F 31% 30.04 in 10.0 mi NW 11.5 mph 19.6 mph N/A   Clear
4:55 AM 27.3 °F 17.7 °F -1.1 °F 29% 30.05 in 10.0 mi WNW 10.4 mph - N/A   Clear
5:15 AM 27.0 °F 16.7 °F -3.5 °F 27% 30.05 in 10.0 mi WNW 11.5 mph 17.3 mph N/A   Clear
5:55 AM 26.4 °F 18.0 °F -5.8 °F 24% 30.07 in 10.0 mi WNW 8.1 mph 18.4 mph N/A   Clear
6:15 AM 25.0 °F 19.3 °F -4.2 °F 28% 30.08 in 10.0 mi NW 4.6 mph - N/A   Clear
6:35 AM 23.9 °F 15.0 °F -3.6 °F 30% 30.10 in 10.0 mi NW 8.1 mph - N/A   Clear
6:55 AM 23.9 °F 16.8 °F -4.7 °F 29% 30.11 in 10.0 mi NW 5.8 mph - N/A   Clear
7:35 AM 22.8 °F 15.5 °F -3.5 °F 32% 30.13 in 10.0 mi NW 5.8 mph - N/A   Clear
7:55 AM 23.0 °F 13.9 °F -3.1 °F 32% 30.14 in 10.0 mi NW 8.1 mph - N/A   Clear
8:15 AM 25.0 °F 18.1 °F -3.5 °F 29% 30.15 in 10.0 mi NW 5.8 mph - N/A   Clear
8:35 AM 26.6 °F 17.5 °F -3.3 °F 27% 30.16 in 10.0 mi NW 9.2 mph - N/A   Clear
8:55 AM 27.3 °F 19.1 °F -4.4 °F 25% 30.16 in 10.0 mi NW 8.1 mph - N/A   Clear
9:15 AM 28.2 °F 18.3 °F -6.2 °F 22% 30.17 in 10.0 mi WNW 11.5 mph 18.4 mph N/A   Clear
9:35 AM 28.4 °F 19.1 °F -8.3 °F 20% 30.17 in 10.0 mi WNW 10.4 mph - N/A   Clear
9:55 AM 29.8 °F 21.5 °F -8.5 °F 19% 30.18 in 10.0 mi West 9.2 mph 16.1 mph N/A   Clear
10:15 AM 30.2 °F 21.3 °F -8.7 °F 18% 30.19 in 10.0 mi WNW 10.4 mph - N/A   Clear
10:35 AM 30.9 °F 22.2 °F -8.9 °F 18% 30.19 in 10.0 mi NW 10.4 mph - N/A   Clear
10:55 AM 31.5 °F 22.3 °F -11.6 °F 15% 30.19 in 10.0 mi West 11.5 mph - N/A   Clear
11:15 AM 32.0 °F 23.0 °F -11.9 °F 15% 30.19 in 10.0 mi WNW 11.5 mph 21.9 mph N/A   Clear
11:35 AM 32.9 °F 26.7 °F -10.8 °F 15% 30.19 in 10.0 mi WNW 6.9 mph - N/A   Clear
11:55 AM 33.1 °F 26.1 °F -14.3 °F 13% 30.18 in 10.0 mi West 8.1 mph 20.7 mph N/A   Clear
12:15 PM 33.4 °F 24.8 °F -17.0 °F 11% 30.17 in 10.0 mi WNW 11.5 mph 20.7 mph N/A   Clear
12:35 PM 34.0 °F 25.0 °F -15.0 °F 12% 30.16 in 10.0 mi West 12.7 mph 19.6 mph N/A   Clear
12:55 PM 34.3 °F 27.7 °F -15.9 °F 11% 30.15 in 10.0 mi West 8.1 mph - N/A   Clear
1:15 PM 34.7 °F 27.5 °F -16.4 °F 11% 30.15 in 10.0 mi WNW 9.2 mph 21.9 mph N/A   Clear
1:35 PM 35.1 °F 27.4 °F -17.3 °F 10% 30.14 in 10.0 mi NW 10.4 mph 18.4 mph N/A   Clear
1:55 PM 35.1 °F 28.6 °F -15.7 °F 11% 30.14 in 10.0 mi West 8.1 mph 18.4 mph N/A   Clear
2:15 PM 35.6 °F 27.1 °F -17.0 °F 10% 30.14 in 10.0 mi WNW 12.7 mph 20.7 mph N/A   Clear
2:55 PM 36.0 °F 29.6 °F -15.9 °F 10% 30.14 in 10.0 mi WNW 8.1 mph 18.4 mph N/A   Clear
3:15 PM 36.3 °F 29.5 °F -15.3 °F 10% 30.13 in 10.0 mi NW 9.2 mph - N/A   Clear
3:35 PM 36.0 °F 28.5 °F -15.9 °F 10% 30.14 in 10.0 mi WNW 10.4 mph 16.1 mph N/A   Clear
3:55 PM 36.0 °F 29.6 °F -18.0 °F 9% 30.14 in 10.0 mi WNW 8.1 mph 16.1 mph N/A   Clear
4:35 PM 34.7 °F 28.8 °F -17.5 °F 10% 30.14 in 10.0 mi WNW 6.9 mph - N/A   Clear
4:55 PM 33.8 °F 26.4 °F -15.9 °F 11% 30.15 in 10.0 mi NW 9.2 mph - N/A   Clear
5:15 PM 32.4 °F 25.3 °F -15.0 °F 12% 30.16 in 10.0 mi NNW 8.1 mph - N/A   Clear
5:35 PM 30.6 °F 24.7 °F -13.5 °F 14% 30.17 in 10.0 mi NW 5.8 mph - N/A   Clear
6:15 PM 28.2 °F 23.1 °F -11.9 °F 17% 30.18 in 10.0 mi NW 4.6 mph - N/A   Clear
6:35 PM 27.7 °F 22.4 °F -9.4 °F 20% 30.18 in 10.0 mi NW 4.6 mph - N/A   Clear
6:55 PM 27.3 °F 23.4 °F -8.3 °F 21% 30.18 in 10.0 mi West 3.5 mph - N/A   Clear
7:15 PM 26.2 °F 22.1 °F -10.1 °F 20% 30.17 in 10.0 mi West 3.5 mph - N/A   Scattered Clouds
7:35 PM 26.6 °F 22.6 °F -7.4 °F 23% 30.18 in 10.0 mi West 3.5 mph - N/A   Scattered Clouds
7:55 PM 27.3 °F 23.4 °F -7.4 °F 22% 30.18 in 10.0 mi NW 3.5 mph - N/A   Scattered Clouds
8:15 PM 26.4 °F 22.4 °F -7.4 °F 23% 30.18 in 10.0 mi West 3.5 mph - N/A   Clear
8:35 PM 26.4 °F 22.4 °F -7.8 °F 22% 30.18 in 10.0 mi West 3.5 mph - N/A   Clear
8:55 PM 26.6 °F 21.2 °F -7.4 °F 23% 30.19 in 10.0 mi WNW 4.6 mph - N/A   Clear
9:15 PM 26.1 °F 20.5 °F -7.8 °F 23% 30.20 in 10.0 mi WNW 4.6 mph - N/A   Clear
9:35 PM 25.7 °F 20.1 °F -6.5 °F 24% 30.21 in 10.0 mi WNW 4.6 mph - N/A   Clear
10:15 PM 22.6 °F - -11.6 °F 22% 30.21 in 10.0 mi Calm Calm - N/A   Clear
10:35 PM 20.8 °F - -13.9 °F 21% 30.21 in 10.0 mi Calm Calm - N/A   Clear
10:55 PM 19.4 °F - -14.8 °F 21% 30.22 in 10.0 mi Calm Calm - N/A   Clear
11:15 PM 19.4 °F - -14.6 °F 22% 30.21 in 10.0 mi Calm Calm - N/A   Clear
11:35 PM 20.1 °F - -13.4 °F 22% 30.21 in 10.0 mi Calm Calm - N/A   Clear
11:55 PM 18.3 °F - -15.9 °F 21% 30.21 in 10.0 mi Calm Calm - N/A   Clear